• In Netherlands
  • List of Countries
  • For 7 days
  • Water Temperature
  • Satellite Maps
  • Weather Map
  • Weather Widgets
  • user-avatar
    Login

    Hourly Weather Wlora

    Today, 29 March, Wednesday

    Time Temperature Precipitation Wind Pressure Humidity
    00:00 +10°C° 0 mm 5 mps 765 mmHg 68%
    01:00 +10°C° 0 mm 6 mps 764 mmHg 67%
    02:00 +9°C° 0 mm 5 mps 764 mmHg 66%
    03:00 +9°C° 0 mm 5 mps 764 mmHg 65%
    04:00 +9°C° 0 mm 5 mps 764 mmHg 64%
    05:00 +10°C° 0 mm 5 mps 764 mmHg 61%
    06:00 +12°C° 0 mm 5 mps 764 mmHg 58%
    07:00 +14°C° 0 mm 4 mps 764 mmHg 52%
    08:00 +15°C° 0 mm 4 mps 764 mmHg 47%
    09:00 +18°C° 0 mm 4 mps 765 mmHg 42%
    10:00 +20°C° 0 mm 4 mps 765 mmHg 38%
    11:00 +21°C° 0 mm 4 mps 764 mmHg 37%
    12:00 +21°C° 0 mm 5 mps 764 mmHg 36%
    13:00 +22°C° 0 mm 5 mps 764 mmHg 35%
    14:00 +21°C° 0 mm 6 mps 764 mmHg 38%
    15:00 +21°C° 0 mm 6 mps 763 mmHg 41%
    16:00 +20°C° 0 mm 6 mps 763 mmHg 44%
    17:00 +17°C° 0 mm 6 mps 763 mmHg 54%
    18:00 +15°C° 0 mm 6 mps 763 mmHg 63%
    19:00 +13°C° 0 mm 6 mps 763 mmHg 72%
    20:00 +12°C° 0 mm 5 mps 764 mmHg 71%
    21:00 +12°C° 0 mm 5 mps 764 mmHg 70%
    22:00 +12°C° 0 mm 5 mps 764 mmHg 68%
    23:00 +12°C° 0 mm 5 mps 764 mmHg 65%

    Tomorrow, 30 March, Thursday

    Time Temperature Precipitation Wind Pressure Humidity
    00:00 +12°C° 0 mm 5 mps 764 mmHg 62%
    01:00 +11°C° 0 mm 4 mps 764 mmHg 59%
    02:00 +11°C° 0 mm 4 mps 764 mmHg 57%
    03:00 +11°C° 0 mm 4 mps 764 mmHg 55%
    04:00 +11°C° 0 mm 4 mps 764 mmHg 53%
    05:00 +12°C° 0 mm 4 mps 764 mmHg 52%
    06:00 +13°C° 0 mm 4 mps 764 mmHg 51%
    07:00 +14°C° 0 mm 4 mps 764 mmHg 50%
    08:00 +17°C° 0 mm 4 mps 764 mmHg 46%
    09:00 +19°C° 0 mm 4 mps 764 mmHg 42%
    10:00 +21°C° 0 mm 4 mps 764 mmHg 37%
    11:00 +22°C° 0 mm 5 mps 764 mmHg 36%
    12:00 +23°C° 0 mm 6 mps 764 mmHg 35%
    13:00 +23°C° 0 mm 6 mps 764 mmHg 34%
    14:00 +23°C° 0 mm 7 mps 764 mmHg 38%
    15:00 +22°C° 0 mm 7 mps 764 mmHg 41%
    16:00 +22°C° 0 mm 8 mps 764 mmHg 45%
    17:00 +20°C° 0 mm 7 mps 764 mmHg 54%
    18:00 +17°C° 0 mm 7 mps 764 mmHg 62%
    19:00 +15°C° 0 mm 7 mps 764 mmHg 71%
    20:00 +14°C° 0 mm 6 mps 765 mmHg 70%
    21:00 +14°C° 0 mm 6 mps 765 mmHg 69%
    22:00 +14°C° 0 mm 6 mps 765 mmHg 69%
    23:00 +14°C° 0 mm 5 mps 765 mmHg 66%

    Day after tomorrow, 31 March, Friday

    Time Temperature Precipitation Wind Pressure Humidity
    00:00 +14°C° 0 mm 5 mps 765 mmHg 64%
    01:00 +14°C° 0 mm 5 mps 765 mmHg 62%
    02:00 +13°C° 0 mm 5 mps 765 mmHg 63%
    03:00 +13°C° 0 mm 4 mps 765 mmHg 64%
    04:00 +13°C° 0 mm 4 mps 765 mmHg 65%
    05:00 +14°C° 0 mm 4 mps 765 mmHg 64%
    06:00 +14°C° 0 mm 4 mps 765 mmHg 63%
    07:00 +16°C° 0 mm 3 mps 766 mmHg 62%
    08:00 +18°C° 0 mm 3 mps 766 mmHg 56%
    09:00 +20°C° 0 mm 3 mps 766 mmHg 49%
    10:00 +23°C° 0 mm 2 mps 766 mmHg 43%
    11:00 +22°C° 0 mm 3 mps 766 mmHg 42%
    12:00 +24°C° 0 mm 3 mps 765 mmHg 40%
    13:00 +24°C° 0 mm 3 mps 765 mmHg 39%
    14:00 +22°C° 0 mm 4 mps 765 mmHg 43%
    15:00 +21°C° 0 mm 4 mps 765 mmHg 46%
    16:00 +21°C° 0 mm 4 mps 764 mmHg 50%
    17:00 +19°C° 0 mm 3 mps 765 mmHg 58%
    18:00 +17°C° 0 mm 3 mps 765 mmHg 66%
    19:00 +15°C° 0 mm 2 mps 765 mmHg 74%
    20:00 +15°C° 0 mm 2 mps 765 mmHg 73%
    21:00 +15°C° 0 mm 2 mps 765 mmHg 72%
    22:00 +15°C° 0 mm 1 mps 765 mmHg 71%
    23:00 +14°C° 0 mm 1 mps 765 mmHg 72%

    1 April, Saturday

    Time Temperature Precipitation Wind Pressure Humidity
    00:00 +14°C° 0 mm 1 mps 765 mmHg 73%
    01:00 +14°C° 0 mm 1 mps 765 mmHg 73%
    02:00 +14°C° 0 mm 1 mps 765 mmHg 73%
    03:00 +14°C° 0 mm 1 mps 765 mmHg 73%
    04:00 +14°C° 0 mm 2 mps 764 mmHg 73%
    05:00 +14°C° 0 mm 2 mps 765 mmHg 71%
    06:00 +15°C° 0 mm 2 mps 765 mmHg 69%
    07:00 +16°C° 0 mm 3 mps 765 mmHg 68%
    08:00 +18°C° 0 mm 3 mps 765 mmHg 63%
    09:00 +19°C° 0 mm 4 mps 765 mmHg 58%
    10:00 +21°C° 0 mm 4 mps 765 mmHg 52%
    11:00 +21°C° 0 mm 5 mps 764 mmHg 52%
    12:00 +21°C° 0 mm 5 mps 764 mmHg 51%
    13:00 +21°C° 0 mm 5 mps 764 mmHg 51%
    14:00 +20°C° 0 mm 5 mps 764 mmHg 53%
    15:00 +20°C° 0 mm 5 mps 763 mmHg 56%
    16:00 +19°C° 0 mm 5 mps 763 mmHg 59%
    17:00 +18°C° 0 mm 4 mps 763 mmHg 66%
    18:00 +15°C° 0 mm 4 mps 763 mmHg 72%
    19:00 +14°C° 0 mm 4 mps 763 mmHg 79%
    20:00 +13°C° 0 mm 4 mps 764 mmHg 79%
    21:00 +13°C° 0 mm 4 mps 764 mmHg 80%
    22:00 +13°C° 0 mm 4 mps 764 mmHg 81%
    23:00 +13°C° 0 mm 4 mps 764 mmHg 81%

    2 April, Sunday

    Time Temperature Precipitation Wind Pressure Humidity
    00:00 +13°C° 0 mm 4 mps 764 mmHg 82%
    01:00 +13°C° 0 mm 4 mps 764 mmHg 82%
    02:00 +12°C° 0 mm 5 mps 764 mmHg 82%
    03:00 +12°C° 0 mm 5 mps 764 mmHg 81%
    04:00 +12°C° 0 mm 5 mps 764 mmHg 81%
    05:00 +13°C° 0 mm 5 mps 764 mmHg 77%
    06:00 +14°C° 0 mm 5 mps 764 mmHg 74%
    07:00 +15°C° 0 mm 5 mps 764 mmHg 70%
    08:00 +16°C° 0 mm 5 mps 764 mmHg 64%
    09:00 +19°C° 0 mm 5 mps 765 mmHg 58%
    10:00 +20°C° 0 mm 5 mps 765 mmHg 52%
    11:00 +20°C° 0 mm 5 mps 764 mmHg 52%
    12:00 +21°C° 0 mm 6 mps 764 mmHg 52%
    13:00 +21°C° 0 mm 6 mps 764 mmHg 52%
    14:00 +20°C° 0.1 mm 6 mps 764 mmHg 56%
    15:00 +19°C° 0.1 mm 5 mps 764 mmHg 59%
    16:00 +19°C° 0.1 mm 5 mps 763 mmHg 63%
    17:00 +17°C° 0 mm 4 mps 764 mmHg 69%
    18:00 +15°C° 0 mm 4 mps 764 mmHg 76%
    19:00 +13°C° 0 mm 4 mps 764 mmHg 83%
    20:00 +13°C° 0 mm 4 mps 764 mmHg 84%
    21:00 +12°C° 0 mm 3 mps 765 mmHg 85%
    22:00 +12°C° 0 mm 3 mps 765 mmHg 86%
    23:00 +12°C° 0 mm 3 mps 765 mmHg 86%

    3 April, Monday

    Time Temperature Precipitation Wind Pressure Humidity
    00:00 +11°C° 0 mm 3 mps 765 mmHg 86%
    01:00 +11°C° 0 mm 3 mps 764 mmHg 86%
    02:00 +11°C° 0 mm 3 mps 764 mmHg 83%
    03:00 +12°C° 0 mm 2 mps 764 mmHg 81%
    04:00 +12°C° 0 mm 2 mps 764 mmHg 79%
    05:00 +12°C° 0.1 mm 2 mps 764 mmHg 74%
    06:00 +13°C° 0.1 mm 2 mps 764 mmHg 68%
    07:00 +14°C° 0.1 mm 2 mps 764 mmHg 63%
    08:00 +16°C° 0.1 mm 2 mps 764 mmHg 56%
    09:00 +18°C° 0.1 mm 2 mps 764 mmHg 50%
    10:00 +20°C° 0.1 mm 2 mps 764 mmHg 43%
    11:00 +20°C° 0 mm 2 mps 764 mmHg 43%
    12:00 +21°C° 0 mm 3 mps 763 mmHg 42%
    13:00 +21°C° 0 mm 3 mps 763 mmHg 42%
    14:00 +20°C° 0 mm 4 mps 762 mmHg 46%
    15:00 +20°C° 0 mm 5 mps 762 mmHg 49%
    16:00 +19°C° 0 mm 6 mps 761 mmHg 52%
    17:00 +17°C° 0.1 mm 5 mps 761 mmHg 59%
    18:00 +15°C° 0.1 mm 5 mps 762 mmHg 66%
    19:00 +13°C° 0.1 mm 4 mps 762 mmHg 73%
    20:00 +13°C° 0 mm 4 mps 762 mmHg 70%
    21:00 +13°C° 0 mm 4 mps 762 mmHg 68%
    22:00 +13°C° 0 mm 3 mps 762 mmHg 66%
    23:00 +13°C° 0.2 mm 4 mps 762 mmHg 69%
    Show more